STARLINK-31792, 60132

Orbit data source: Space-Track

STARLINK-31792, 60132 is a payload satellite owned by SpaceX/Seattle (US) in LEO that was launched on Mon, 24 Jun 2024 UTC via an FALCON 9 launch vehicle from the Air Force Western Test Range (AFWTR). Payload-class satellites include a variety of spacecraft equipped with specific instruments for various scientific and technological missions. These include communications satellites like Starlink; space stations such as the ISS; scientific satellites like the Hubble; Earth observation satellites from companies like Planet Labs, Umbra, and HawkEye 360; GPS; miniature CubeSats for education and research; and military/defense satellites.

Loading next visibility...
Identifier
60132, 2024-118V
Orbit
LEO
Country
Flag of USUS
Related business
Manufacturer
SpaceX/Seattle
Mission
Operational Commercial Communications
Bus & Motor
STARLINK V2M, Unknown motor
Mass
730 kg wet, ~700 kg dry
Launch date (UTC)
2024-06-24 (2 years ago)
Launch vehicle
FALCON 9
Launch site
Air Force Western Test Range (AFWTR)
Object type
Payload
Rocket body
Debris
Shape & HBR
Box + 2 Pan, 17.7 m
Radar Cross Section
33.884 m², Large (>1 m²)

Expand to show TLE details & history
Last TLE update: 23 hours ago

TLE from 23 hours ago
0 STARLINK-31792
1 60132U 24118V   26126.26029852 -.00000758  00000-0 -13487-4 0  9998
2 60132  53.1601 116.9235 0001196  86.5934 273.5203 15.30187604104540
Epoch: 2026-05-06T06:14Z
TLE epoch observation values (Epoch: 2026-05-06T06:14:49.792Z)
Latitude
-0.00005°
Longitude
159.09266°
Altitude
476.102 km
Speed
7.629 km/s
True Right ascension
07h 47m 41s
True Declination
0° 00' 00"
Sunlit
Object was in daylight at epoch
Visualization orbit readout
Latitude
Unknown
Longitude
Unknown
Altitude
Unknown
Speed
Unknown
Apparent Right ascension
Unknown
Apparent Declination
Unknown
Sunlit
N/A
Visualization observer readout
Local Sidereal Time
13:44:30
Azimuth
Unknown
Elevation
Unknown
Doppler factor
Unknown
Orbital elements
Apogee altitude
476.328 km
Perigee altitude
474.689 km
Semi-major axis
6,853.645 km
Eccentricity
0.00012
Inclination
53.1601°
RAAN
116.9235°
Arg. of periapsis
86.5934°
True anomaly
273.50662°
Mean anomaly
273.5203°
Eccentric anomaly
273.51346°
Mean motion
3.82526 °/min
Orbital period
94.11 mins
BSTAR
-0.000013487
Loading maneuver chart data...
Computing Atmospheric mass density...
Loading historical data...
Loading historical data...
Loading historical data...
Loading historical data...
Loading historical data...
Loading historical data...
Loading historical data...

Documentation

Showing up to 5 results
|